TimeCST,TemperatureF,Dew PointF,Humidity,Sea Level PressureIn,VisibilityMPH,Wind Direction,Wind SpeedMPH,Gust SpeedMPH,PrecipitationIn,Events,Conditions,WindDirDegrees,DateUTC
12:15 AM,60.8,55.4,82,29.62,10.0,North,-9999.0,-,N/A,,Clear,0,2013-01-29 06:15:00
12:35 AM,60.8,55.4,82,29.61,10.0,North,-9999.0,-,N/A,,Clear,0,2013-01-29 06:35:00
12:55 AM,60.8,55.4,82,29.60,10.0,North,-9999.0,-,N/A,,Clear,0,2013-01-29 06:55:00
1:15 AM,62.6,55.4,77,29.59,10.0,North,-9999.0,-,N/A,,Clear,0,2013-01-29 07:15:00
1:35 AM,62.6,55.4,77,29.58,10.0,North,-9999.0,-,N/A,,Clear,0,2013-01-29 07:35:00
1:55 AM,62.6,55.4,77,29.57,10.0,North,-9999.0,-,N/A,,Scattered Clouds,0,2013-01-29 07:55:00
2:15 AM,62.6,57.2,82,29.56,10.0,North,-9999.0,-,N/A,,Scattered Clouds,0,2013-01-29 08:15:00
2:35 AM,62.6,57.2,82,29.56,10.0,North,-9999.0,-,N/A,,Mostly Cloudy,0,2013-01-29 08:35:00
2:55 AM,62.6,57.2,82,29.56,10.0,North,-9999.0,-,N/A,,Mostly Cloudy,0,2013-01-29 08:55:00
3:15 AM,64.4,57.2,77,29.54,10.0,North,-9999.0,-,N/A,,Scattered Clouds,0,2013-01-29 09:15:00
3:35 AM,62.6,53.6,72,29.56,10.0,North,-9999.0,-,N/A,,Mostly Cloudy,0,2013-01-29 09:35:00
3:55 AM,60.8,51.8,72,29.56,10.0,North,-9999.0,-,N/A,,Scattered Clouds,0,2013-01-29 09:55:00
4:15 AM,59.0,51.8,77,29.57,10.0,North,-9999.0,-,N/A,,Clear,0,2013-01-29 10:15:00
4:35 AM,57.2,51.8,82,29.56,10.0,North,-9999.0,-,N/A,,Scattered Clouds,0,2013-01-29 10:35:00
4:55 AM,59.0,53.6,82,29.56,10.0,North,-9999.0,-,N/A,,Clear,0,2013-01-29 10:55:00
5:15 AM,60.8,55.4,82,29.56,7.0,North,-9999.0,-,N/A,,Scattered Clouds,0,2013-01-29 11:15:00
5:35 AM,62.6,55.4,77,29.55,7.0,North,-9999.0,-,N/A,Rain,Light Rain,0,2013-01-29 11:35:00
5:55 AM,60.8,55.4,82,29.58,7.0,North,-9999.0,-,N/A,,Overcast,0,2013-01-29 11:55:00
6:15 AM,55.4,51.8,88,29.60,5.0,North,-9999.0,-,N/A,,Haze,0,2013-01-29 12:15:00
6:35 AM,50.0,44.6,82,29.60,2.0,North,-9999.0,-,N/A,,Haze,0,2013-01-29 12:35:00
6:55 AM,48.2,42.8,82,29.61,2.0,North,-9999.0,-,N/A,,Haze,0,2013-01-29 12:55:00
7:15 AM,46.4,41.0,81,29.61,4.0,North,-9999.0,-,N/A,,Haze,0,2013-01-29 13:15:00
7:35 AM,44.6,39.2,81,29.59,5.0,North,-9999.0,-,N/A,,Haze,0,2013-01-29 13:35:00
7:55 AM,44.6,39.2,81,29.61,7.0,North,-9999.0,-,N/A,,Overcast,0,2013-01-29 13:55:00
8:15 AM,42.8,37.4,81,29.63,5.0,North,-9999.0,-,N/A,,Haze,0,2013-01-29 14:15:00
8:35 AM,42.8,37.4,81,29.64,7.0,North,-9999.0,-,N/A,,Overcast,0,2013-01-29 14:35:00
8:55 AM,42.8,37.4,81,29.64,7.0,North,-9999.0,-,N/A,,Overcast,0,2013-01-29 14:55:00
9:15 AM,42.8,37.4,81,29.64,7.0,North,-9999.0,-,N/A,,Overcast,0,2013-01-29 15:15:00
9:35 AM,42.8,37.4,81,29.63,7.0,North,-9999.0,-,N/A,,Overcast,0,2013-01-29 15:35:00
9:55 AM,42.8,37.4,81,29.64,10.0,North,-9999.0,-,N/A,,Scattered Clouds,0,2013-01-29 15:55:00
10:15 AM,42.8,37.4,81,29.65,7.0,North,-9999.0,-,N/A,,Scattered Clouds,0,2013-01-29 16:15:00
10:35 AM,42.8,37.4,81,29.66,7.0,North,-9999.0,-,N/A,,Drizzle,0,2013-01-29 16:35:00
10:55 AM,42.8,37.4,81,29.67,7.0,North,-9999.0,-,N/A,,Light Drizzle,0,2013-01-29 16:55:00
11:15 AM,-9999,-9999,N/A,29.65,-9999.0,North,-9999.0,-,0.01,,Unknown,0,2013-01-29 17:15:00
11:35 AM,37.4,35.6,93,29.64,7.0,NNW,11.5,-,0.02,Rain,Light Rain,330,2013-01-29 17:35:00
11:55 AM,37.4,33.8,87,29.61,7.0,North,-9999.0,-,0.02,Rain,Rain,0,2013-01-29 17:55:00
12:15 PM,37.4,35.6,93,29.59,7.0,North,-9999.0,-,N/A,,Overcast,0,2013-01-29 18:15:00
12:35 PM,35.6,33.8,93,29.59,7.0,North,-9999.0,-,N/A,,Overcast,0,2013-01-29 18:35:00
12:55 PM,35.6,33.8,93,29.59,7.0,NNW,11.5,-,N/A,,Overcast,330,2013-01-29 18:55:00
1:15 PM,35.6,33.8,93,29.56,7.0,North,-9999.0,-,N/A,,Overcast,0,2013-01-29 19:15:00
1:35 PM,35.6,33.8,93,29.59,5.0,North,-9999.0,-,N/A,,Overcast,0,2013-01-29 19:35:00
1:55 PM,35.6,33.8,93,29.57,7.0,North,-9999.0,-,N/A,,Overcast,0,2013-01-29 19:55:00
2:15 PM,35.6,33.8,93,29.56,7.0,North,-9999.0,-,N/A,,Overcast,0,2013-01-29 20:15:00
2:35 PM,35.6,33.8,93,29.57,5.0,NNW,12.7,-,N/A,,Overcast,330,2013-01-29 20:35:00
2:55 PM,35.6,33.8,93,29.56,4.0,North,-9999.0,-,N/A,,Overcast,0,2013-01-29 20:55:00
3:15 PM,35.6,33.8,93,29.52,5.0,North,-9999.0,-,N/A,,Overcast,0,2013-01-29 21:15:00
3:35 PM,35.6,33.8,93,29.54,2.5,North,-9999.0,-,N/A,,Overcast,0,2013-01-29 21:35:00
3:55 PM,33.8,32.0,93,29.55,4.0,North,-9999.0,-,N/A,,Overcast,0,2013-01-29 21:55:00
4:15 PM,33.8,32.0,93,29.58,7.0,NNW,12.7,-,N/A,,Overcast,330,2013-01-29 22:15:00
4:35 PM,33.8,32.0,93,29.58,7.0,North,-9999.0,-,N/A,,Overcast,0,2013-01-29 22:35:00
4:55 PM,33.8,32.0,93,29.56,7.0,North,-9999.0,-,N/A,,Overcast,0,2013-01-29 22:55:00
5:15 PM,33.8,32.0,93,29.58,7.0,North,-9999.0,-,N/A,,Overcast,0,2013-01-29 23:15:00
5:35 PM,33.8,32.0,93,29.55,10.0,North,-9999.0,-,N/A,,Overcast,0,2013-01-29 23:35:00
5:55 PM,33.8,32.0,93,29.57,7.0,North,-9999.0,-,N/A,,Overcast,0,2013-01-29 23:55:00
6:15 PM,33.8,30.2,87,29.55,5.0,North,-9999.0,-,N/A,,Overcast,0,2013-01-30 00:15:00
6:35 PM,33.8,30.2,87,29.59,5.0,North,-9999.0,-,N/A,,Overcast,0,2013-01-30 00:35:00
6:55 PM,33.8,30.2,87,29.62,7.0,NNW,12.7,-,N/A,,Overcast,330,2013-01-30 00:55:00
7:15 PM,33.8,30.2,87,29.56,3.0,North,-9999.0,-,0.02,Rain,Light Rain,0,2013-01-30 01:15:00
7:35 PM,33.8,30.2,87,29.55,4.0,North,-9999.0,-,0.03,Rain,Light Rain,0,2013-01-30 01:35:00
7:55 PM,33.8,30.2,87,29.53,5.0,North,-9999.0,-,0.03,,Overcast,0,2013-01-30 01:55:00
8:15 PM,33.8,30.2,87,29.59,4.0,North,-9999.0,-,N/A,,Overcast,0,2013-01-30 02:15:00
8:35 PM,33.8,30.2,87,29.59,4.0,North,-9999.0,-,N/A,,Light Drizzle,0,2013-01-30 02:35:00
8:55 PM,33.8,30.2,87,29.59,4.0,NNW,11.5,-,0.01,,Overcast,330,2013-01-30 02:55:00
9:15 PM,33.8,30.2,87,29.60,2.5,NNW,12.7,-,0.02,Rain,Rain,330,2013-01-30 03:15:00
9:35 PM,33.8,30.2,87,29.59,3.0,North,-9999.0,-,0.04,,Overcast,0,2013-01-30 03:35:00
9:55 PM,32.0,30.2,93,29.56,3.0,North,-9999.0,-,0.05,Snow,Light Snow,0,2013-01-30 03:55:00
10:15 PM,32.0,30.2,93,29.55,4.0,North,-9999.0,-,N/A,,Overcast,0,2013-01-30 04:15:00
10:35 PM,32.0,30.2,93,29.54,4.0,North,-9999.0,-,N/A,,Overcast,0,2013-01-30 04:35:00
10:55 PM,32.0,30.2,93,29.53,5.0,North,-9999.0,-,N/A,,Overcast,0,2013-01-30 04:55:00
11:15 PM,32.0,30.2,93,29.53,5.0,North,-9999.0,-,N/A,,Overcast,0,2013-01-30 05:15:00
11:35 PM,32.0,30.2,93,29.55,4.0,North,-9999.0,-,N/A,Snow,Light Snow,0,2013-01-30 05:35:00